STARLINK-36805, 68116

Orbit data source: Space-Track

STARLINK-36805, 68116 is a payload satellite owned by SpaceX/Seattle (US) in SSO that was launched on Sun, 08 Mar 2026 UTC via an FALCON 9 launch vehicle from the Air Force Western Test Range (AFWTR). Payload-class satellites include a variety of spacecraft equipped with specific instruments for various scientific and technological missions. These include communications satellites like Starlink; space stations such as the ISS; scientific satellites like the Hubble; Earth observation satellites from companies like Planet Labs, Umbra, and HawkEye 360; GPS; miniature CubeSats for education and research; and military/defense satellites.

Loading next visibility...
Identifier
68116, 2026-044R
Orbit
SSO
Country
Flag of USUS
Related business
Manufacturer
SpaceX/Seattle
Mission
Operational spacecraft
Bus & Motor
STARLINK V2MO, Unknown motor
Mass
575 kg wet, ~530 kg dry
Launch date (UTC)
2026-03-08 (3 months ago)
Launch vehicle
FALCON 9
Launch site
Air Force Western Test Range (AFWTR)
Object type
Payload
Rocket body
Debris
Shape & HBR
Unknown shape, 17.7 m
Radar Cross Section
Large (>1 m²)

Expand to show TLE details & history
Last TLE update: 6 days ago

TLE from 6 days ago
0 STARLINK-36805
1 68116U 26044R   26154.42474591  .00027289  00000-0  84434-3 0  9996
2 68116  97.2862 114.9464 0001025  70.5492 289.5861 15.33453704 14720
Epoch: 2026-06-03T10:11Z
TLE epoch observation values (Epoch: 2026-06-03T10:11:38.046Z)
Latitude
-0.00007°
Longitude
70.15433°
Altitude
468.394 km
Speed
7.632 km/s
True Right ascension
07h 39m 47s
True Declination
0° 00' 00"
Sunlit
Object was in daylight at epoch
Visualization orbit readout
Latitude
Unknown
Longitude
Unknown
Altitude
Unknown
Speed
Unknown
Apparent Right ascension
Unknown
Apparent Declination
Unknown
Sunlit
N/A
Visualization observer readout
Local Sidereal Time
19:33:56
Azimuth
Unknown
Elevation
Unknown
Doppler factor
Unknown
Orbital elements
Apogee altitude
463.161 km
Perigee altitude
461.759 km
Semi-major axis
6,840.597 km
Eccentricity
0.0001
Inclination
97.2862°
RAAN
114.9464°
Arg. of periapsis
70.5492°
True anomaly
289.57503°
Mean anomaly
289.5861°
Eccentric anomaly
289.58057°
Mean motion
3.83621 °/min
Orbital period
93.84 mins
BSTAR
0.00084434
Loading maneuver chart data...
Computing Atmospheric mass density...
Loading historical data...
Loading historical data...
Loading historical data...
Loading historical data...
Loading historical data...
Loading historical data...
Loading historical data...

Documentation

Showing up to 5 results
|